Dewpoint
5 8 10 11 13 13 14 14 13 13 13 12 12 11 10 11 10 10 11 11 11 11 11 12 12 13 12 12 12 11 11 7 6 3 -2 3 7 6 4 6 6 7 5
1 5 9 11 12 13 13 13 14 13 13 13 13 12 12 11 11 11 12 12 12 12 12 8 11 12 12 11 12 10 10 6 6 1 -1 4 7 9 9 9 9 8 6
-1 2 7 10 12 13 13 12 13 14 14 13 13 13 13 12 12 12 12 12 12 12 12 9 9 11 11 11 11 10 9 7 7 -1 3 7 6 10 11 11 11 8 6
-4 1 5 7 11 11 13 13 13 13 13 13 13 13 13 12 12 12 12 12 12 12 12 12 10 9 7 10 10 10 9 8 6 1 4 8 8 12 12 12 10 7 5
-5 -3 2 5 8 11 12 13 13 12 12 13 13 13 13 13 12 12 12 12 12 12 12 12 11 9 7 8 9 9 9 9 5 1 3 5 9 11 13 12 8 4 2
-8 -7 -4 1 5 8 10 11 12 12 12 13 13 13 13 13 12 12 12 12 12 12 12 12 10 6 7 10 9 9 9 8 5 1 4 10 9 12 13 10 8 4 3
-10 -10 -9 -6 1 4 8 9 10 11 12 12 12 12 12 13 13 12 11 12 12 11 11 12 10 7 6 9 9 9 8 6 5 3 7 11 13 13 12 9 6 6 3
-13 -13 -12 -10 -8 -2 1 3 7 10 10 11 12 12 11 11 11 11 11 11 11 11 11 11 11 8 7 7 9 9 6 5 4 6 8 8 11 11 12 7 6 7 5
-14 -13 -13 -12 -11 -10 -6 -4 -1 2 8 10 10 11 12 12 11 10 10 10 10 11 11 11 10 10 7 7 10 7 4 4 4 8 7 8 11 11 10 4 6 7 6
-15 -15 -15 -15 -14 -13 -13 -12 -10 -6 -3 2 7 10 10 11 11 12 11 11 10 10 10 10 11 9 8 6 10 6 2 2 3 9 10 10 10 10 10 7 7 8 7
-17 -18 -18 -17 -17 -17 -17 -16 -14 -12 -10 -6 -1 4 7 9 10 11 11 12 12 11 10 10 10 10 9 6 8 9 2 -0 0 8 11 8 7 9 10 10 7 8 8
-20 -21 -22 -22 -22 -21 -20 -19 -18 -17 -15 -14 -12 -7 -2 3 6 8 10 11 12 12 12 10 9 9 10 8 5 10 3 1 -2 7 10 9 9 9 10 10 10 7 9
-24 -24 -25 -25 -26 -25 -25 -24 -23 -21 -20 -19 -17 -15 -12 -8 -4 3 7 9 11 12 12 12 10 9 9 9 6 9 6 6 0 -1 9 8 9 9 9 10 12 8 9
-25 -25 -25 -26 -26 -27 -27 -27 -27 -26 -23 -22 -21 -20 -18 -15 -12 -8 -3 5 8 10 11 11 12 11 9 9 9 7 9 7 8 3 4 8 5 8 9 10 12 10 9
-24 -24 -24 -25 -25 -26 -27 -28 -28 -28 -28 -27 -24 -22 -21 -20 -18 -15 -12 -8 -0 6 8 10 11 11 11 10 11 9 10 7 9 7 3 3 3 9 10 11 12 11 9
-23 -23 -24 -25 -26 -27 -27 -28 -28 -28 -28 -29 -29 -26 -23 -22 -21 -20 -16 -14 -11 -5 3 7 9 11 11 11 12 12 10 10 7 10 7 2 5 10 10 10 11 12 10
-24 -24 -25 -25 -26 -27 -28 -28 -28 -28 -28 -28 -28 -28 -28 -24 -23 -22 -21 -17 -14 -13 -9 1 7 9 10 11 10 11 11 10 10 8 10 7 4 9 8 9 9 13 11
-24 -24 -25 -25 -25 -25 -25 -26 -26 -26 -26 -26 -27 -27 -27 -26 -24 -23 -23 -22 -17 -14 -13 -9 2 8 9 10 11 11 11 11 9 10 9 10 6 9 9 7 9 11 12
-23 -24 -24 -25 -24 -24 -24 -24 -25 -25 -24 -24 -24 -24 -25 -25 -25 -24 -23 -23 -22 -15 -14 -13 -7 4 8 9 10 11 12 11 9 10 10 10 6 6 9 7 7 8 10
-22 -22 -22 -22 -22 -22 -21 -21 -22 -23 -23 -23 -22 -22 -22 -23 -23 -23 -23 -23 -22 -19 -14 -13 -11 -2 5 7 9 11 11 11 10 9 10 11 10 6 7 8 7 8 8
-22 -22 -22 -22 -21 -20 -20 -20 -20 -20 -21 -21 -20 -20 -20 -20 -21 -22 -22 -22 -22 -21 -15 -12 -12 -9 2 5 7 10 11 10 10 9 9 11 9 9 7 8 8 7 7
-21 -22 -21 -21 -20 -19 -19 -17 -17 -17 -18 -19 -20 -19 -19 -19 -19 -20 -20 -21 -21 -21 -19 -12 -11 -11 -3 2 4 6 10 10 10 9 10 11 8 7 8 8 7 7 6
-22 -21 -20 -19 -19 -20 -19 -18 -17 -16 -17 -18 -18 -19 -18 -18 -18 -18 -19 -19 -20 -21 -20 -17 -9 -10 -8 -0 1 3 6 10 10 10 10 11 9 9 8 8 7 8 7
-21 -21 -19 -19 -19 -20 -19 -18 -16 -16 -16 -17 -17 -17 -17 -17 -17 -18 -18 -18 -19 -20 -20 -19 -10 -10 -10 -6 -1 1 1 2 6 10 9 9 9 9 8 8 8 8 7
-20 -20 -19 -20 -20 -19 -19 -18 -18 -16 -16 -16 -17 -17 -17 -17 -17 -17 -17 -17 -18 -19 -19 -19 -18 -14 -10 -9 -5 -2 1 2 4 6 10 9 9 10 9 9 8 8 7
-20 -19 -19 -20 -19 -19 -18 -18 -17 -17 -16 -16 -16 -16 -17 -17 -16 -16 -17 -17 -17 -18 -18 -19 -19 -18 -13 -10 -8 -6 -3 -2 3 1 6 9 9 9 9 9 9 8 7
Wind_Speed
32 28 22 21 18 18 21 12 3 4 1 1 1 2 4 5 5 5 5 6 7 7 6 5 7 7 6 7 6 4 3 3 2 2 2 4 6 6 8 7 7 7 7
26 26 25 17 15 14 14 17 8 2 3 2 1 2 3 4 6 6 6 6 7 7 7 7 6 8 7 7 6 5 5 4 3 2 5 6 8 9 8 10 10 10 10
24 25 22 20 13 10 9 10 11 6 1 1 2 4 4 5 6 7 8 8 9 9 8 7 7 9 9 8 8 7 6 5 4 5 7 7 9 10 10 9 11 9 9
22 21 20 19 16 12 8 10 7 5 2 4 4 4 7 7 8 8 9 10 10 11 9 8 8 9 10 10 11 10 8 8 7 7 9 9 9 11 12 13 9 7 7
18 20 20 18 15 13 13 11 10 10 5 3 5 8 6 8 9 9 10 11 10 11 11 10 10 11 12 12 12 12 10 11 10 10 10 11 11 13 14 14 7 5 4
15 16 18 18 18 17 15 14 11 13 13 8 7 4 8 9 10 10 12 12 12 12 13 14 13 13 13 13 13 15 13 13 12 13 11 10 12 12 15 13 8 4 2
17 17 17 17 14 16 16 18 16 13 14 12 12 10 9 8 10 12 13 13 14 14 14 15 15 14 14 16 15 15 15 15 15 15 13 11 12 14 15 9 7 5 3
18 19 18 18 16 13 14 15 15 15 14 14 14 14 12 12 13 12 15 16 16 15 15 16 16 16 17 17 18 17 16 17 18 17 15 15 14 13 13 11 9 6 4
17 17 18 19 18 17 15 15 15 15 15 15 15 15 15 15 15 16 16 17 18 18 17 17 18 18 19 20 19 18 17 20 21 21 17 16 16 14 15 14 13 9 6
20 22 22 22 21 20 19 19 19 17 17 17 15 15 15 14 17 18 19 20 20 19 20 19 19 19 20 21 21 20 18 20 24 25 21 19 18 18 16 15 15 12 8
23 24 24 25 24 24 23 22 20 18 19 18 17 16 15 15 19 18 20 21 22 22 21 22 21 21 21 23 23 21 20 23 26 28 25 20 21 22 19 17 17 15 12
27 28 29 28 29 28 27 26 25 24 21 21 21 20 19 17 17 17 18 21 24 24 24 24 25 24 23 25 25 24 24 24 27 31 29 23 22 22 22 23 22 19 15
26 25 28 29 30 31 30 30 29 29 28 26 24 24 23 22 20 19 19 20 22 24 23 27 27 27 26 27 27 27 27 26 28 31 33 28 25 25 25 23 26 22 19
25 26 28 29 30 31 31 32 32 31 30 29 28 27 26 26 24 22 20 20 23 22 24 23 28 28 30 28 29 29 30 31 29 30 34 32 28 28 28 24 28 26 23
24 25 27 29 30 31 32 31 31 31 31 30 29 27 27 27 28 26 23 22 21 22 21 20 23 31 32 33 31 33 32 35 34 33 32 35 34 31 29 23 30 29 27
23 26 28 29 30 31 32 32 32 31 30 29 29 29 27 27 28 28 27 24 22 21 21 22 21 24 34 35 37 34 36 35 38 36 33 32 36 34 31 28 27 33 33
24 26 27 29 30 31 32 31 31 31 31 30 29 28 26 27 27 27 27 27 25 22 22 23 23 22 26 33 39 35 40 39 40 40 36 33 34 37 35 30 26 39 38
24 27 28 29 28 28 28 29 30 30 29 29 29 29 28 26 26 27 26 26 26 26 23 23 24 25 28 27 34 37 42 42 42 42 42 37 37 40 36 34 33 33 44
26 28 29 30 31 31 29 28 28 30 31 29 28 27 27 27 26 26 26 25 25 26 25 23 22 25 23 25 29 33 39 36 43 42 44 41 35 41 39 36 34 29 27
28 28 28 28 29 29 30 30 28 26 27 30 28 28 28 26 26 26 25 23 24 24 25 24 24 24 23 19 31 33 27 42 47 48 46 45 39 38 41 38 33 31 30
28 29 29 29 29 29 31 32 33 34 31 30 32 27 27 27 26 25 25 24 22 23 23 24 24 25 21 19 20 29 24 38 46 50 48 44 40 37 42 40 35 30 29
28 28 28 28 27 29 28 28 29 31 33 32 31 33 28 27 27 25 24 24 23 23 22 22 22 23 20 16 14 11 13 24 41 46 52 45 45 40 44 41 37 34 30
31 29 28 27 29 32 29 29 29 30 33 34 33 33 33 29 27 26 24 24 23 23 23 22 20 19 22 19 13 10 5 9 19 31 48 51 47 46 44 42 41 38 35
31 28 26 28 33 32 28 28 29 30 33 33 34 34 35 33 29 27 25 24 23 23 22 22 20 19 20 24 20 8 21 14 5 11 37 44 50 47 43 45 43 42 38
29 25 26 34 32 30 28 27 29 29 30 32 33 35 35 35 32 28 26 25 24 23 22 22 23 21 20 23 20 22 22 24 23 26 16 36 45 52 50 48 46 45 40
27 24 31 35 33 31 28 27 27 29 30 32 32 34 34 34 34 31 27 27 25 24 23 23 23 23 22 23 23 20 18 14 16 8 4 23 41 47 54 53 51 51 45
Wind_Direction
351 358 10 22 25 32 55 47 24 340 300 65 70 246 227 229 219 222 208 192 186 191 189 196 200 206 204 195 192 207 266 274 333 352 137 161 154 161 154 139 127 115 103
338 352 357 21 25 20 33 71 60 347 330 301 175 234 254 249 245 227 222 220 214 219 230 235 210 224 220 231 229 216 240 258 286 213 173 174 163 162 153 139 135 118 102
344 352 356 11 10 12 352 14 73 94 261 268 258 263 235 236 252 248 235 234 246 251 246 234 220 226 238 234 241 240 234 236 235 192 182 188 179 175 167 151 140 123 105
345 351 352 5 8 7 324 322 343 45 85 201 216 262 254 239 235 237 245 250 257 264 255 239 230 247 246 235 237 237 230 234 216 205 193 196 196 185 173 159 152 143 126
351 357 355 360 358 339 349 342 309 318 331 324 210 220 241 250 249 249 252 253 258 263 263 250 251 248 253 241 233 236 231 221 222 215 201 202 197 201 186 172 174 161 141
1 2 4 4 355 343 321 326 329 297 288 286 281 263 211 226 234 253 254 253 256 256 263 260 261 259 254 248 240 234 228 225 222 211 200 191 191 195 185 183 183 185 181
5 6 8 12 359 338 330 312 308 312 305 291 290 291 285 254 236 245 248 251 255 257 256 259 260 263 253 249 243 237 231 227 217 208 199 182 173 187 179 196 205 207 204
7 8 8 8 7 347 332 327 320 308 298 304 288 278 279 277 268 255 252 251 251 246 254 255 261 263 259 252 246 245 237 227 216 205 203 201 193 203 211 219 218 221 219
9 4 3 4 1 359 345 339 335 325 310 295 291 297 282 267 265 263 261 261 255 249 247 249 254 259 260 255 251 250 236 226 218 209 211 217 217 218 214 219 216 219 214
6 5 4 2 359 356 355 350 346 337 328 313 301 278 281 281 267 262 260 261 261 255 251 245 246 252 256 255 253 251 238 227 220 212 212 221 220 226 219 217 213 216 212
12 7 3 359 356 354 353 350 342 334 329 323 312 304 287 278 273 270 266 262 261 260 255 248 244 245 249 252 251 249 240 230 223 216 216 218 226 229 226 220 218 219 214
8 7 5 2 358 354 350 348 344 341 336 333 328 318 311 304 294 277 269 261 262 260 258 253 247 245 243 248 245 245 239 230 226 218 218 220 222 230 232 230 223 219 222
13 7 5 2 0 355 352 349 345 342 338 333 329 324 318 309 301 292 277 261 258 256 259 254 249 245 242 245 244 243 240 232 228 223 222 223 226 234 237 233 221 221 223
13 10 7 3 359 356 353 350 346 342 340 335 332 327 319 314 308 302 299 288 272 267 261 258 251 246 243 241 244 242 240 233 231 229 226 228 230 234 234 231 227 222 222
11 8 5 360 356 352 348 344 341 338 336 334 331 328 324 318 315 310 301 297 293 277 271 264 255 248 244 242 244 241 238 236 233 232 230 229 232 232 234 235 226 222 218
5 1 358 354 350 345 340 336 333 330 328 326 326 326 324 322 317 313 307 299 292 289 283 271 266 252 245 244 244 249 239 238 236 234 232 231 230 229 233 238 232 226 216
2 356 351 348 344 339 335 330 326 323 323 320 320 320 319 318 317 313 310 305 299 289 285 280 267 259 252 245 247 248 246 240 241 238 234 235 232 232 232 236 237 222 217
356 352 350 347 343 339 335 329 325 324 321 319 316 316 316 314 313 312 310 306 302 296 288 281 276 262 254 253 243 244 250 247 240 241 238 236 238 230 231 232 238 232 208
354 351 347 345 343 341 339 333 325 322 322 322 319 317 313 313 312 311 309 307 303 298 292 286 278 276 266 251 245 244 245 239 243 242 240 235 236 229 230 231 237 247 235
357 354 350 347 343 341 338 335 331 325 320 319 323 323 319 314 311 310 306 305 304 300 292 287 284 276 275 269 246 232 232 243 232 238 239 240 231 235 228 228 234 242 236
355 351 347 343 343 340 337 334 331 331 329 323 325 326 323 320 316 310 307 306 304 302 297 293 287 284 266 273 272 241 232 243 233 235 236 235 230 238 226 224 228 240 238
350 347 345 343 339 338 334 331 328 326 324 324 324 324 325 322 319 316 311 307 304 301 297 295 289 284 277 272 280 263 235 237 235 236 240 225 219 228 226 220 223 232 237
346 344 340 337 334 333 330 325 323 320 321 322 322 320 323 322 319 317 313 309 303 301 298 298 293 284 283 270 263 257 283 236 232 230 228 222 217 219 225 222 222 225 233
340 335 333 332 329 328 327 322 320 318 317 317 316 317 318 320 319 315 313 309 304 298 295 294 289 290 277 277 269 221 232 248 277 229 229 229 225 217 221 224 222 222 228
333 332 331 329 328 328 326 320 317 313 312 312 312 312 313 313 316 315 312 309 305 298 293 291 290 288 277 275 269 273 258 261 263 259 219 210 226 219 218 222 221 224 226
328 326 329 330 329 326 323 321 317 314 313 312 311 309 310 311 312 313 312 309 304 299 293 290 287 285 279 271 270 266 274 275 242 320 298 211 213 219 222 222 219 225 224
Height
1545 1543 1538 1535 1534 1533 1533 1532 1532 1533 1532 1531 1531 1531 1531 1532 1533 1533 1533 1532 1533 1532 1532 1532 1531 1532 1532 1532 1532 1533 1535 1535 1535 1535 1535 1535 1535 1536 1537 1538 1538 1538 1538
1551 1545 1540 1536 1535 1535 1533 1530 1532 1531 1532 1531 1530 1531 1532 1533 1533 1534 1535 1534 1533 1533 1533 1532 1532 1533 1533 1534 1534 1534 1534 1535 1535 1535 1535 1536 1536 1537 1538 1539 1539 1540 1540
1551 1545 1541 1537 1535 1535 1534 1532 1529 1529 1530 1530 1529 1531 1529 1530 1532 1534 1533 1534 1535 1533 1532 1532 1531 1532 1533 1533 1534 1534 1534 1535 1535 1535 1536 1536 1537 1537 1539 1540 1540 1540 1540
1550 1546 1542 1538 1536 1534 1534 1533 1530 1528 1528 1528 1527 1528 1529 1529 1530 1531 1533 1534 1534 1534 1532 1531 1531 1531 1532 1532 1533 1534 1534 1535 1535 1535 1536 1536 1537 1538 1538 1540 1540 1541 1541
1552 1548 1544 1539 1537 1535 1534 1532 1531 1530 1527 1526 1525 1526 1528 1529 1530 1529 1530 1530 1531 1533 1532 1532 1530 1530 1531 1531 1532 1533 1534 1534 1535 1535 1535 1536 1537 1538 1539 1539 1540 1542 1542
1552 1549 1546 1540 1537 1535 1533 1532 1531 1530 1527 1526 1525 1523 1524 1525 1526 1528 1529 1528 1529 1530 1531 1530 1530 1529 1530 1531 1532 1533 1533 1534 1534 1535 1535 1535 1536 1538 1539 1539 1540 1541 1542
1553 1549 1546 1542 1538 1536 1533 1531 1529 1528 1526 1525 1524 1524 1523 1522 1523 1525 1526 1527 1527 1527 1527 1529 1529 1528 1529 1530 1531 1532 1532 1533 1533 1534 1535 1535 1536 1537 1539 1540 1540 1541 1541
1551 1548 1545 1542 1538 1536 1534 1530 1528 1525 1524 1523 1522 1523 1521 1521 1521 1522 1523 1523 1523 1523 1525 1525 1527 1527 1527 1527 1529 1529 1530 1531 1532 1533 1535 1536 1536 1537 1538 1539 1540 1541 1541
1550 1547 1543 1540 1538 1535 1533 1530 1527 1524 1522 1522 1521 1520 1519 1520 1519 1519 1520 1520 1520 1519 1520 1521 1523 1525 1526 1525 1526 1527 1528 1529 1530 1532 1533 1534 1536 1536 1537 1538 1539 1540 1541
1548 1545 1542 1540 1538 1536 1534 1532 1528 1525 1522 1520 1518 1518 1518 1516 1515 1515 1515 1516 1517 1516 1516 1516 1518 1520 1522 1523 1523 1524 1525 1527 1527 1529 1531 1532 1534 1535 1535 1537 1538 1539 1540
1549 1545 1543 1541 1537 1535 1533 1530 1528 1525 1523 1520 1516 1515 1515 1512 1512 1512 1512 1511 1511 1512 1513 1513 1513 1515 1517 1519 1520 1521 1522 1523 1524 1527 1529 1530 1531 1533 1534 1535 1537 1538 1539
1547 1545 1542 1539 1537 1535 1532 1530 1528 1525 1523 1520 1516 1514 1511 1509 1508 1507 1506 1506 1507 1506 1507 1508 1509 1511 1512 1514 1515 1517 1518 1519 1520 1523 1525 1527 1528 1530 1531 1533 1534 1536 1538
1549 1547 1543 1540 1537 1534 1531 1528 1526 1523 1521 1518 1515 1511 1511 1508 1506 1505 1503 1501 1501 1501 1501 1502 1504 1505 1506 1508 1510 1512 1513 1515 1517 1519 1521 1523 1525 1526 1528 1530 1531 1534 1536
1550 1548 1545 1542 1538 1535 1532 1529 1526 1523 1520 1518 1515 1512 1511 1506 1503 1501 1499 1497 1494 1495 1495 1496 1497 1499 1501 1502 1504 1507 1509 1510 1513 1515 1517 1519 1521 1522 1524 1526 1528 1531 1533
1550 1548 1545 1543 1539 1537 1533 1530 1527 1524 1521 1519 1518 1514 1510 1505 1501 1498 1495 1492 1491 1490 1489 1490 1490 1492 1494 1495 1498 1500 1502 1505 1507 1510 1512 1514 1516 1518 1520 1522 1524 1526 1529
1552 1548 1545 1543 1539 1537 1533 1529 1526 1523 1519 1516 1514 1510 1505 1502 1499 1496 1492 1488 1487 1486 1485 1484 1484 1485 1486 1489 1491 1493 1494 1497 1501 1504 1506 1508 1511 1513 1515 1517 1520 1521 1523
1551 1549 1545 1541 1538 1535 1531 1526 1523 1519 1514 1512 1509 1507 1502 1499 1496 1493 1489 1485 1482 1480 1480 1480 1478 1478 1479 1481 1482 1486 1487 1490 1493 1497 1498 1502 1504 1508 1509 1512 1513 1514 1515
1550 1546 1542 1539 1536 1532 1528 1523 1519 1515 1511 1508 1504 1501 1497 1495 1492 1488 1485 1481 1478 1477 1475 1474 1473 1471 1471 1473 1474 1476 1477 1479 1485 1489 1492 1495 1497 1501 1503 1506 1506 1507 1507
1547 1543 1540 1536 1532 1528 1524 1520 1516 1511 1507 1504 1501 1496 1494 1490 1487 1483 1481 1476 1473 1472 1471 1469 1468 1466 1463 1464 1466 1467 1468 1469 1475 1481 1484 1487 1490 1493 1497 1500 1501 1503 1501
1546 1541 1537 1533 1529 1525 1520 1516 1513 1510 1505 1502 1497 1492 1490 1486 1483 1479 1479 1472 1468 1467 1466 1465 1462 1460 1459 1458 1457 1456 1459 1461 1463 1466 1475 1479 1482 1486 1491 1493 1496 1497 1501
1544 1539 1535 1530 1526 1521 1517 1513 1507 1502 1500 1498 1492 1490 1486 1481 1479 1477 1473 1467 1465 1464 1462 1460 1457 1455 1456 1453 1451 1450 1451 1453 1454 1458 1464 1467 1470 1477 1484 1487 1489 1490 1492
1542 1537 1532 1528 1524 1520 1516 1511 1506 1501 1497 1492 1487 1482 1482 1477 1474 1471 1467 1464 1461 1459 1458 1456 1452 1450 1451 1448 1449 1444 1443 1446 1444 1448 1454 1458 1461 1466 1477 1479 1483 1486 1487
1538 1533 1529 1525 1521 1517 1512 1507 1502 1498 1492 1488 1484 1479 1476 1474 1470 1466 1463 1460 1457 1455 1454 1451 1448 1446 1444 1444 1444 1444 1439 1437 1437 1439 1438 1443 1451 1459 1468 1471 1475 1480 1482
1534 1530 1526 1522 1518 1513 1509 1503 1498 1493 1487 1484 1479 1475 1471 1468 1466 1462 1459 1456 1453 1451 1449 1446 1444 1442 1441 1438 1438 1439 1437 1436 1434 1433 1432 1436 1443 1447 1454 1462 1467 1473 1476
1531 1527 1523 1518 1513 1508 1504 1499 1494 1488 1484 1478 1474 1469 1466 1462 1459 1457 1454 1451 1448 1446 1443 1440 1438 1437 1436 1435 1433 1431 1429 1430 1432 1432 1422 1425 1433 1437 1442 1449 1458 1464 1468
1527 1523 1518 1512 1507 1503 1499 1494 1488 1483 1478 1473 1469 1464 1460 1456 1453 1451 1449 1446 1443 1440 1437 1434 1432 1431 1429 1428 1427 1427 1428 1427 1422 1423 1416 1421 1422 1428 1433 1440 1446 1453 1459